SCP
0 0 0 0 0 1 2 2 2 2 2 2 1 1 1 1 1 1 1 0 0 1 1 0 0 0 0 0 0 0 0 0
0 0 0 0 0 0 1 1 1 3 3 2 2 1 1 1 0 1 1 1 0 1 1 0 0 0 0 0 0 0 0 0
0 0 0 0 0 0 0 1 1 2 3 3 3 2 2 2 1 1 1 1 1 1 1 1 0 1 0 0 0 0 0 0
0 0 0 0 0 0 0 0 0 4 2 3 4 3 2 2 1 1 1 1 1 1 1 1 0 1 0 0 0 0 0 0
0 0 0 0 0 0 0 0 0 0 3 3 3 4 3 3 2 2 1 1 1 1 1 1 1 1 1 0 0 1 0 0
0 0 0 0 0 0 0 0 0 0 0 3 4 3 4 3 3 2 2 1 2 1 1 1 1 1 1 0 0 1 1 0
0 0 0 0 0 0 0 0 0 0 0 0 0 3 3 2 2 2 1 2 1 1 1 1 1 1 1 0 1 1 0 0
0 0 0 0 0 0 0 0 0 0 0 0 0 0 0 1 1 2 2 2 1 1 1 1 1 1 0 1 1 1 1 1
0 0 0 0 0 0 0 0 0 0 0 0 0 0 0 0 0 0 1 1 1 0 1 1 1 1 1 0 0 0 0 0
0 0 0 0 0 0 0 0 0 0 0 0 0 0 0 0 0 0 0 1 1 1 1 0 1 1 0 0 0 0 0 0
0 0 0 0 0 0 0 0 0 0 0 0 0 0 0 0 0 0 0 0 1 0 0 1 1 1 0 0 0 0 0 0
-0 0 0 0 0 0 0 0 0 0 0 0 0 0 0 0 0 0 0 0 0 0 0 0 0 0 0 0 0 0 0 0
0 0 0 0 0 0 0 0 0 0 0 0 0 0 0 0 0 0 0 0 0 0 0 0 0 0 0 0 0 0 0 0
-0 0 0 0 0 0 0 0 0 0 0 0 0 0 0 0 0 0 0 0 0 0 0 0 0 0 0 0 0 0 0 0
-0 -0 -0 -0 0 0 0 0 0 0 0 0 0 0 0 0 0 0 0 0 0 0 0 0 0 0 0 0 0 0 0 0
-0 -0 -0 -0 0 -0 0 0 0 0 0 0 0 0 0 0 0 0 0 0 0 0 0 0 0 0 0 0 0 0 0 0
-0 -0 -0 -0 -0 0 0 0 0 0 0 0 0 0 0 0 0 0 0 0 0 0 0 0 0 0 0 0 0 0 0 0
-0 -0 -0 -0 -0 -0 -0 0 0 0 0 0 0 0 0 0 0 0 0 0 0 0 0 0 0 0 0 0 0 0 0 0
-0 -0 -0 -0 -0 -0 -0 -0 -0 -0 0 0 0 0 0 0 0 0 0 0 0 0 0 0 0 0 0 0 0 0 0 0
Wind_Speed_500mb
63 62 64 65 71 65 68 73 91 89 89 85 81 76 76 74 67 67 65 64 61 57 55 52 52 54 55 56 56 55 54 50
56 64 55 60 59 69 67 71 89 88 90 87 82 80 79 80 72 71 69 69 67 62 61 56 56 59 58 57 56 56 54 49
42 47 45 45 47 55 66 72 77 87 84 77 82 81 86 81 74 71 71 72 71 67 67 62 60 60 60 59 59 58 53 49
20 18 13 21 31 40 52 68 73 77 77 75 81 80 78 80 84 80 79 74 72 68 70 70 65 62 61 61 61 58 57 51
21 7 3 4 13 21 30 47 61 71 66 65 72 80 81 85 81 80 83 79 73 69 72 76 71 64 62 62 60 61 58 59
28 23 13 11 11 16 21 28 38 49 62 57 61 69 69 71 73 72 72 77 77 77 78 78 70 67 64 64 59 61 65 65
30 26 20 19 19 17 18 23 25 33 42 55 55 60 63 70 71 66 64 60 64 81 76 72 61 54 63 68 64 61 64 68
38 40 36 32 30 28 29 26 18 24 36 44 50 53 59 63 62 65 65 60 61 69 84 75 63 59 60 69 71 67 66 71
42 46 44 43 41 38 31 30 27 16 27 34 39 47 60 62 58 58 61 64 64 60 64 70 73 67 57 67 77 75 71 71
52 54 57 52 48 43 40 33 27 20 13 12 22 37 46 53 59 60 51 58 67 63 61 67 75 73 78 91 84 80 77 72
64 61 65 67 58 49 44 40 35 28 10 9 10 17 37 47 61 63 65 64 64 61 60 64 71 79 81 77 70 73 77 75
69 69 74 72 72 66 55 50 43 36 25 13 11 9 12 22 36 43 50 61 73 68 65 65 74 82 77 67 69 70 74 75
61 76 80 81 80 80 78 65 53 47 35 22 12 16 14 15 21 28 32 39 42 48 53 59 70 82 86 78 70 73 74 78
70 83 82 77 68 75 77 78 70 62 50 46 40 34 26 24 15 14 18 22 31 29 41 46 57 61 66 68 69 69 71 78
65 77 76 81 83 77 74 70 73 75 68 63 60 56 48 41 34 24 13 7 16 26 32 31 37 52 62 69 72 74 72 73
66 75 72 70 72 71 70 72 74 73 73 74 71 65 61 54 48 39 33 21 11 10 20 33 36 44 60 65 73 74 71 71
54 59 59 61 65 70 71 71 69 68 71 73 71 72 68 66 64 57 48 38 32 22 11 14 20 33 51 62 67 71 67 73
46 48 51 51 53 59 67 71 67 67 65 66 69 69 67 71 67 63 65 62 51 43 34 26 19 22 37 59 71 73 74 86
46 50 52 55 53 57 62 71 73 69 66 62 61 62 63 64 64 66 67 65 60 57 52 48 42 34 33 36 50 60 45 50
Wind_Direction_500mb
288 291 280 268 259 258 252 238 230 228 229 228 230 232 235 233 235 234 233 234 235 232 232 230 231 231 230 230 233 235 238 241
279 282 276 268 256 252 237 235 231 230 228 229 230 234 236 236 234 236 237 238 237 235 235 232 230 232 233 232 233 237 238 241
276 271 259 245 237 230 228 231 228 231 232 235 236 237 239 242 239 237 236 236 238 235 236 235 231 232 233 232 231 234 236 237
266 249 253 216 213 211 214 222 228 230 235 237 239 241 244 245 241 239 239 236 235 233 235 236 233 233 236 237 232 230 233 233
352 309 315 119 172 183 190 206 217 223 223 231 238 239 240 246 248 245 241 238 236 233 234 237 236 235 237 238 238 229 231 235
9 9 356 27 93 134 155 181 201 216 220 219 232 239 243 247 251 250 249 248 238 233 234 239 237 237 240 242 240 232 230 236
22 30 37 55 66 99 109 157 183 205 214 218 223 236 246 248 247 248 248 247 243 238 238 241 239 249 258 251 246 241 237 234
24 34 36 50 60 75 86 100 143 194 205 207 218 227 235 239 249 255 253 248 248 243 236 231 233 242 248 256 250 245 242 236
27 34 36 46 55 63 78 89 95 134 188 201 213 225 234 237 240 245 254 251 249 252 247 235 226 240 243 255 251 250 247 242
24 32 37 48 55 57 64 68 76 85 122 171 208 233 239 242 248 246 248 255 254 250 245 237 236 234 252 241 254 249 250 245
29 33 38 45 53 58 64 62 55 61 66 5 297 250 253 257 257 256 252 254 258 255 249 236 233 246 239 246 251 253 250 246
25 38 44 48 53 57 60 62 59 54 67 48 15 350 302 285 276 269 262 254 252 254 257 250 246 245 242 254 255 257 251 246
24 41 46 49 50 53 54 55 55 51 46 42 22 10 351 325 297 282 275 265 263 262 261 256 249 244 253 254 252 251 248 243
27 44 43 44 35 54 57 59 57 55 52 49 46 39 30 26 4 322 289 268 256 262 269 263 257 257 257 258 255 252 251 244
26 36 38 41 37 45 50 57 57 54 51 50 48 42 35 30 29 25 358 322 257 253 253 264 269 258 259 260 256 253 250 249
23 27 30 37 37 33 45 50 52 52 51 50 48 46 43 39 34 28 28 18 2 292 260 253 252 247 249 245 245 254 255 250
25 29 28 33 38 34 41 46 48 49 48 48 48 47 46 44 43 38 36 30 18 8 338 280 254 239 243 246 244 249 256 250
26 30 31 37 44 45 38 44 46 49 47 44 43 41 43 44 44 42 41 38 34 29 17 5 344 307 258 246 257 248 242 245
28 33 35 37 43 48 47 46 46 47 48 46 43 41 39 38 39 41 43 40 36 35 33 32 23 6 337 277 263 242 233 233
Wind_Speed_850mb
63 62 64 65 71 65 68 73 91 89 89 85 81 76 76 74 67 67 65 64 61 57 55 52 52 54 55 56 56 55 54 50
56 64 55 60 59 69 67 71 89 88 90 87 82 80 79 80 72 71 69 69 67 62 61 56 56 59 58 57 56 56 54 49
42 47 45 45 47 55 66 72 77 87 84 77 82 81 86 81 74 71 71 72 71 67 67 62 60 60 60 59 59 58 53 49
20 18 13 21 31 40 52 68 73 77 77 75 81 80 78 80 84 80 79 74 72 68 70 70 65 62 61 61 61 58 57 51
21 7 3 4 13 21 30 47 61 71 66 65 72 80 81 85 81 80 83 79 73 69 72 76 71 64 62 62 60 61 58 59
28 23 13 11 11 16 21 28 38 49 62 57 61 69 69 71 73 72 72 77 77 77 78 78 70 67 64 64 59 61 65 65
30 26 20 19 19 17 18 23 25 33 42 55 55 60 63 70 71 66 64 60 64 81 76 72 61 54 63 68 64 61 64 68
38 40 36 32 30 28 29 26 18 24 36 44 50 53 59 63 62 65 65 60 61 69 84 75 63 59 60 69 71 67 66 71
42 46 44 43 41 38 31 30 27 16 27 34 39 47 60 62 58 58 61 64 64 60 64 70 73 67 57 67 77 75 71 71
52 54 57 52 48 43 40 33 27 20 13 12 22 37 46 53 59 60 51 58 67 63 61 67 75 73 78 91 84 80 77 72
64 61 65 67 58 49 44 40 35 28 10 9 10 17 37 47 61 63 65 64 64 61 60 64 71 79 81 77 70 73 77 75
69 69 74 72 72 66 55 50 43 36 25 13 11 9 12 22 36 43 50 61 73 68 65 65 74 82 77 67 69 70 74 75
61 76 80 81 80 80 78 65 53 47 35 22 12 16 14 15 21 28 32 39 42 48 53 59 70 82 86 78 70 73 74 78
70 83 82 77 68 75 77 78 70 62 50 46 40 34 26 24 15 14 18 22 31 29 41 46 57 61 66 68 69 69 71 78
65 77 76 81 83 77 74 70 73 75 68 63 60 56 48 41 34 24 13 7 16 26 32 31 37 52 62 69 72 74 72 73
66 75 72 70 72 71 70 72 74 73 73 74 71 65 61 54 48 39 33 21 11 10 20 33 36 44 60 65 73 74 71 71
54 59 59 61 65 70 71 71 69 68 71 73 71 72 68 66 64 57 48 38 32 22 11 14 20 33 51 62 67 71 67 73
46 48 51 51 53 59 67 71 67 67 65 66 69 69 67 71 67 63 65 62 51 43 34 26 19 22 37 59 71 73 74 86
46 50 52 55 53 57 62 71 73 69 66 62 61 62 63 64 64 66 67 65 60 57 52 48 42 34 33 36 50 60 45 50
Wind_Direction_850mb
288 291 280 268 259 258 252 238 230 228 229 228 230 232 235 233 235 234 233 234 235 232 232 230 231 231 230 230 233 235 238 241
279 282 276 268 256 252 237 235 231 230 228 229 230 234 236 236 234 236 237 238 237 235 235 232 230 232 233 232 233 237 238 241
276 271 259 245 237 230 228 231 228 231 232 235 236 237 239 242 239 237 236 236 238 235 236 235 231 232 233 232 231 234 236 237
266 249 253 216 213 211 214 222 228 230 235 237 239 241 244 245 241 239 239 236 235 233 235 236 233 233 236 237 232 230 233 233
352 309 315 119 172 183 190 206 217 223 223 231 238 239 240 246 248 245 241 238 236 233 234 237 236 235 237 238 238 229 231 235
9 9 356 27 93 134 155 181 201 216 220 219 232 239 243 247 251 250 249 248 238 233 234 239 237 237 240 242 240 232 230 236
22 30 37 55 66 99 109 157 183 205 214 218 223 236 246 248 247 248 248 247 243 238 238 241 239 249 258 251 246 241 237 234
24 34 36 50 60 75 86 100 143 194 205 207 218 227 235 239 249 255 253 248 248 243 236 231 233 242 248 256 250 245 242 236
27 34 36 46 55 63 78 89 95 134 188 201 213 225 234 237 240 245 254 251 249 252 247 235 226 240 243 255 251 250 247 242
24 32 37 48 55 57 64 68 76 85 122 171 208 233 239 242 248 246 248 255 254 250 245 237 236 234 252 241 254 249 250 245
29 33 38 45 53 58 64 62 55 61 66 5 297 250 253 257 257 256 252 254 258 255 249 236 233 246 239 246 251 253 250 246
25 38 44 48 53 57 60 62 59 54 67 48 15 350 302 285 276 269 262 254 252 254 257 250 246 245 242 254 255 257 251 246
24 41 46 49 50 53 54 55 55 51 46 42 22 10 351 325 297 282 275 265 263 262 261 256 249 244 253 254 252 251 248 243
27 44 43 44 35 54 57 59 57 55 52 49 46 39 30 26 4 322 289 268 256 262 269 263 257 257 257 258 255 252 251 244
26 36 38 41 37 45 50 57 57 54 51 50 48 42 35 30 29 25 358 322 257 253 253 264 269 258 259 260 256 253 250 249
23 27 30 37 37 33 45 50 52 52 51 50 48 46 43 39 34 28 28 18 2 292 260 253 252 247 249 245 245 254 255 250
25 29 28 33 38 34 41 46 48 49 48 48 48 47 46 44 43 38 36 30 18 8 338 280 254 239 243 246 244 249 256 250
26 30 31 37 44 45 38 44 46 49 47 44 43 41 43 44 44 42 41 38 34 29 17 5 344 307 258 246 257 248 242 245
28 33 35 37 43 48 47 46 46 47 48 46 43 41 39 38 39 41 43 40 36 35 33 32 23 6 337 277 263 242 233 233